Home   Weather   Whitstable   Past weeks

Flag for United Kingdom Past Weather in Whitstable, England, United Kingdom — Yesterday and Last 2 Weeks

Now
41 °F

Quite cool.


Feels Like: 35 °F
Forecast: 38 / 50 °F
Wind: 12 mph from North

Location: Manston

Current Time: Apr 27, 2017 at 12:40:46 am

Latest Report: Apr 26, 2017 at 11:00 pm


Visibility: 13 mi

Pressure: 30.11 "Hg

Humidity: 77%

Dew Point: 34 °F

Location of WhitstableLocation

Past Weather in Whitstable — Graph

°F

Whitstable Temperature Yesterday

Maximum temperature yesterday: 46 °F (at 12:00 pm)
Minimum temperature yesterday: 39 °F (at 6:00 am)
Average temperature yesterday: 42 °F

High & Low Weather Summary for the Past Weeks

 TemperatureHumidityPressure
High59 °F (Apr 12, 5:00 pm)96% (Apr 21, 6:00 am)30.65 "Hg (Apr 21, 6:00 am)
Low34 °F (Apr 20, 3:00 am)39% (Apr 25, 5:00 pm)29.86 "Hg (Apr 24, 7:00 pm)
Average48 °F72%30.21 "Hg
* Reported Apr 11 10:00 pm — Apr 26 10:00 pm, Whitstable, Weather by CustomWeather, © 2017

Note: Actual official high and low records may vary slightly from our data, if they occured in-between our weather recording intervals... More about our weather records

Advertising

Whitstable Weather History for the Previous 24 Hours

Scroll right to see more
 ConditionsComfort  
Time TempWeatherWind HumidityBarometerVisibility
10:00 pm
Wed, Apr 26
41 °FQuite cool.13 mph79%30.10 "Hg13 mi
9:00 pm42 °FRain showers. Overcast.17 mph82%30.09 "Hg17 mi
8:00 pm40 °FQuite cool.12 mph87%30.07 "Hg13 mi
7:00 pm42 °FQuite cool.8 mph82%30.06 "Hg22 mi
6:00 pm44 °FQuite cool.10 mph77%30.05 "Hg22 mi
5:00 pm41 °FRain showers. Cloudy.12 mph89%30.06 "Hg25 mi
4:00 pm46 °FCool.13 mph70%30.04 "Hg17 mi
3:00 pm44 °FQuite cool.23 mph81%30.05 "Hg22 mi
2:00 pm41 °FLight mixture of precip. Cloudy.17 mph82%30.04 "Hg4 mi
1:00 pm46 °FCool.9 mph77%30.03 "Hg18 mi
12:00 pm46 °FCool.16 mph72%30.02 "Hg11 mi
11:00 am44 °FQuite cool.18 mph75%30.01 "Hg19 mi
10:00 am44 °FQuite cool.17 mph77%30.00 "Hg19 mi
9:00 am43 °FQuite cool.17 mph80%29.99 "Hg16 mi
8:00 am42 °FQuite cool.17 mph83%29.98 "Hg15 mi
7:00 am40 °FQuite cool.14 mph87%29.97 "Hg22 mi
6:00 am39 °FChilly.16 mph87%29.96 "Hg16 mi
5:00 am40 °FChilly.16 mph89%29.94 "Hg15 mi
4:00 am40 °FChilly.15 mph89%29.95 "Hg14 mi
3:00 am40 °FQuite cool.17 mph87%29.95 "Hg16 mi
2:00 am40 °FQuite cool.18 mph83%29.95 "Hg19 mi
1:00 am40 °FQuite cool.15 mph84%29.95 "Hg19 mi
12:00 am40 °FQuite cool.16 mph83%29.95 "Hg19 mi
Weather by CustomWeather, © 2017

See weather overviewHow to use our weather pages